Regional Weather Roundup
Issued by NWS

Home | Current Version | Previous Version | Text Only | Print | Product List | Glossary On
Versions: 1 2 3 4 5 6 7 8 9 10 11 12 13 14 15 16 17 18 19 20 21 22 23 24 25 26 27 28 29 30 31 32 33 34 35 36 37 38 39 40 41 42 43 44 45 46 47 48 49 50
000
ASUS43 KDTX 270810
RWRMI
MICHIGAN HOURLY REGIONAL WEATHER ROUNDUP
NATIONAL WEATHER SERVICE DETROIT/PONTIAC MI
400 AM EDT SAT MAY 27 2017

NOTE: "FAIR" INDICATES FEW OR NO CLOUDS BELOW 12,000 FEET WITH NO
SIGNIFICANT WEATHER AND/OR OBSTRUCTION TO VISIBILITY.

MIZ047>049-052>055-059>063-066>070-074>076-081>083-270900-
SOUTHEAST LOWER MICHIGAN

CITY           SKY/WX    TMP DP  RH WIND       PRES   REMARKS
ADRIAN         CLOUDY    59  58  96 SE3       29.86F
ALMA           MOCLDY    53  53 100 CALM      29.89R FOG
ANN ARBOR      CLOUDY    57  56  96 CALM      29.86S FOG
BAD AXE        CLOUDY    52  51  97 CALM      29.90S
CARO           MOCLDY    54  54 100 CALM      29.88S FOG
DETROIT CITY   CLOUDY    59  56  89 CALM      29.87S
DETROIT        CLOUDY    60  56  86 CALM      29.87F
FLINT          PTCLDY    56  53  90 CALM      29.88R
GROSSE ILE     CLOUDY    60  56  88 CALM      29.86F
HILLSDALE      LGT RAIN  59  55  88 E3        29.85F
HOWELL         PTCLDY    57  53  86 CALM      29.87S

CITY           SKY/WX    TMP DP  RH WIND       PRES   REMARKS
JACKSON        CLOUDY    59  56  89 SE3       29.86S
LAMBERTVILLE   CLOUDY    59  58  97 CALM      29.85F FOG
LANSING        PTCLDY    59  53  80 CALM      29.88R
LAPEER         FAIR      54  53  97 CALM      29.88S FOG
MASON          CLOUDY    59  56  91 CALM      29.87S
MONROE         CLOUDY    60  58  95 CALM      29.85F
MT. CLEMENS    CLOUDY    55  55 100 CALM      29.86F
PONTIAC        PTCLDY    56  54  93 CALM      29.86F
PORT HOPE        N/A     50  49  96 SE3       29.88S
PORT HURON     CLOUDY    50  50 100 CALM      29.89S FOG
TRI CITIES     CLOUDY    56  55  97 CALM      29.89R
MIDLAND        FAIR      56  55  95 CALM      29.87S
TROY           CLOUDY    59  55  84 CALM      29.89S
SAGINAW HB     PTCLDY    54  50  87 S3        29.87S
$$
MIZ043>046-050>051-056>058-064>065-071>073-077>080-270900-
SOUTHWEST LOWER MICHIGAN

CITY           SKY/WX    TMP DP  RH WIND       PRES   REMARKS
BATTLE CREEK   CLOUDY    60  59  96 CALM      29.87S
BENTON HARBOR  CLOUDY    58  55  90 CALM      29.86S
BIG RAPIDS     CLEAR     51  49  93 CALM      29.88F
COLDWATER      DRIZZLE   59  59 100 CALM      29.85S
FREMONT        FAIR      50  50  99 CALM      29.88S
HOLLAND        CLEAR     55  52  89 CALM      29.88R
GRAND RAPIDS   CLOUDY    59  58  96 NE3       29.87F
IONIA          CLOUDY    58  55  92 CALM      29.87S
KALAMAZOO      CLOUDY    60  56  86 SW3       29.87R
LUDINGTON      CLOUDY    46  46 100 CALM      29.89R FOG
MARSHALL       CLOUDY    59  58  98 CALM      29.86S
MOUNT PLEASANT FOG       52  51  97 CALM      29.87F VSB 1
MUSKEGON       CLEAR     54  52  93 E3        29.88S
SOUTH HAVEN    PTCLDY    56  56  98 CALM      29.87R FOG
$$
MIZ016>042-270900-
NORTHERN LOWER MICHIGAN

CITY           SKY/WX    TMP DP  RH WIND       PRES   REMARKS
ALPENA         CLOUDY    48  47  96 CALM      29.89F
BEAVER ISLAND  CLOUDY    50  49  97 CALM      29.88F
BELLAIRE       CLOUDY    50  48  94 CALM      29.89S
CADILLAC       CLOUDY    47  46  97 CALM      29.89R
CHARLEVOIX     CLOUDY    51  51  99 CALM      29.92R
FRANKFORT      CLOUDY    48  46  91 CALM      29.89S
GAYLORD        CLOUDY    53  48  83 CALM      29.89S
GRAYLING         N/A     47  46  98 CALM      29.90S VSB 1/4
HARBOR SPRINGS CLOUDY    51  51 100 CALM      29.89R
HOUGHTON LAKE  MOCLDY    50  49  96 CALM      29.90R
MANISTEE       CLOUDY    47  46  97 CALM      29.89S
OSCODA         FOG       46  45  95 CALM      29.89R VSB 1/4
PELLSTON       CLOUDY    51  48  89 CALM      29.89S
ROGERS CITY    CLOUDY    51  49  93 CALM      29.89F
TRAVERSE CITY  CLOUDY    52  49  89 CALM      29.88R
$$
MIZ007>008-015-270900-
EASTERN UPPER MICHIGAN

CITY           SKY/WX    TMP DP  RH WIND       PRES   REMARKS
KINROSS        CLOUDY    53  49  86 CALM      29.88S
MACKINAC ISLAN CLOUDY    52  52 100 W3        29.88S
NEWBERRY       CLOUDY    53  52  97 S3        29.87S
S. S. MARIE    PTCLDY    53  50  89 CALM      29.87S
MUNISING         N/A     57  55  93 S8        29.84F
$$
MIZ004>006-011>014-085-270900-
CENTRAL UPPER MICHIGAN

CITY           SKY/WX    TMP DP  RH WIND       PRES   REMARKS
MANISTIQUE     CLOUDY    46  45  93 CALM      29.87F
ESCANABA       CLOUDY    51  49  92 CALM      29.87F
MENOMINEE      PTCLDY    52  52 100 CALM      29.87F FOG
SAWYER-GWINN   CLOUDY    55  53  94 S3        29.86S
$$
MIZ001>003-009>011-084-270900-
WESTERN UPPER MICHIGAN

CITY           SKY/WX    TMP DP  RH WIND       PRES   REMARKS
IRON MOUNTAIN  CLOUDY    53  50  89 CALM      29.84F
HOUGHTON       CLEAR     52  48  86 SE3       29.80S
COPPER HARBOR    N/A     56  53  90 SW9       29.78F
IRONWOOD       CLEAR     59  55  87 SW8       29.81R
$$

ABBREVIATIONS USED IN REMARKS
   TC - TEMPERATURE IN CELSIUS
  WCI - WIND CHILL INDEX
   HX - HEAT INDEX
  VSB - VISIBILITY




USA.gov is the U.S. government's official web portal to all federal, state and local government web resources and services.